Time,TemperatureF,DewpointF,PressureIn,WindDirection,WindDirectionDegrees,WindSpeedMPH,WindSpeedGustMPH,Humidity,HourlyPrecipIn,Conditions,Clouds,dailyrainin,SoftwareType,DateUTC
2013-06-17 00:07:00,75.8,69.6,30.01,South,190,0.0,1.0,81,0.00,,,0.00,Wunderground v.1.15,2013-06-17 04:07:00,
2013-06-17 00:12:00,76.0,69.4,30.01,South,190,3.0,3.0,80,0.00,,,0.00,Wunderground v.1.15,2013-06-17 04:12:00,
2013-06-17 00:17:00,76.0,69.4,30.00,South,190,3.0,3.0,80,0.00,,,0.00,Wunderground v.1.15,2013-06-17 04:17:00,
2013-06-17 00:22:00,76.0,69.4,30.01,South,190,5.0,6.0,80,0.00,,,0.00,Wunderground v.1.15,2013-06-17 04:22:00,
2013-06-17 00:27:00,76.0,69.0,30.01,South,190,7.0,7.0,79,0.00,,,0.00,Wunderground v.1.15,2013-06-17 04:27:00,
2013-06-17 00:32:00,75.8,68.8,30.01,SSW,194,7.0,9.0,79,0.00,,,0.00,Wunderground v.1.15,2013-06-17 04:32:00,
2013-06-17 00:38:00,75.7,68.7,30.01,South,189,8.0,11.0,79,0.00,,,0.00,Wunderground v.1.15,2013-06-17 04:38:00,
2013-06-17 00:43:00,75.6,68.6,30.01,SSW,201,5.0,11.0,79,0.00,,,0.00,Wunderground v.1.15,2013-06-17 04:43:00,
2013-06-17 00:48:00,75.6,68.6,30.01,SSW,200,5.0,8.0,79,0.00,,,0.00,Wunderground v.1.15,2013-06-17 04:48:00,
2013-06-17 00:53:00,75.5,68.5,30.01,SSW,207,5.0,8.0,79,0.00,,,0.00,Wunderground v.1.15,2013-06-17 04:53:00,
2013-06-17 00:58:00,75.5,68.5,30.01,SSW,197,6.0,8.0,79,0.00,,,0.00,Wunderground v.1.15,2013-06-17 04:58:00,
2013-06-17 01:04:00,75.4,68.4,30.01,SSW,192,7.0,7.0,79,0.00,,,0.00,Wunderground v.1.15,2013-06-17 05:04:00,
2013-06-17 01:09:00,75.3,68.7,30.01,SSW,205,7.0,9.0,80,0.00,,,0.00,Wunderground v.1.15,2013-06-17 05:09:00,
2013-06-17 01:14:00,75.1,68.5,30.01,SSW,200,6.0,6.0,80,0.00,,,0.00,Wunderground v.1.15,2013-06-17 05:14:00,
2013-06-17 01:20:00,75.0,68.4,30.01,SSW,213,5.0,7.0,80,0.00,,,0.00,Wunderground v.1.15,2013-06-17 05:20:00,
2013-06-17 01:25:00,74.9,68.3,30.01,SSW,212,6.0,6.0,80,0.00,,,0.00,Wunderground v.1.15,2013-06-17 05:25:00,
2013-06-17 01:31:00,74.9,68.7,30.01,SSW,208,5.0,6.0,81,0.00,,,0.00,Wunderground v.1.15,2013-06-17 05:31:00,
2013-06-17 01:36:00,74.8,68.6,30.00,South,185,2.0,5.0,81,0.00,,,0.00,Wunderground v.1.15,2013-06-17 05:36:00,
2013-06-17 01:41:00,74.9,68.7,30.00,SW,216,5.0,6.0,81,0.00,,,0.00,Wunderground v.1.15,2013-06-17 05:41:00,
2013-06-17 01:46:00,74.9,68.7,30.01,SSW,205,8.0,8.0,81,0.00,,,0.00,Wunderground v.1.15,2013-06-17 05:46:00,
2013-06-17 01:51:00,75.0,68.8,30.01,SSW,200,5.0,8.0,81,0.00,,,0.00,Wunderground v.1.15,2013-06-17 05:51:00,
2013-06-17 01:57:00,75.1,68.5,30.00,WSW,245,7.0,7.0,80,0.00,,,0.00,Wunderground v.1.15,2013-06-17 05:57:00,
2013-06-17 02:02:00,75.1,68.5,30.01,SSW,209,7.0,8.0,80,0.00,,,0.00,Wunderground v.1.15,2013-06-17 06:02:00,
2013-06-17 02:07:00,75.1,68.5,30.00,SSW,212,5.0,6.0,80,0.00,,,0.00,Wunderground v.1.15,2013-06-17 06:07:00,
2013-06-17 02:12:00,75.1,68.5,30.00,SSW,212,5.0,7.0,80,0.00,,,0.00,Wunderground v.1.15,2013-06-17 06:12:00,
2013-06-17 02:17:00,75.1,68.5,30.00,SSW,208,6.0,10.0,80,0.00,,,0.00,Wunderground v.1.15,2013-06-17 06:17:00,
2013-06-17 02:22:00,75.1,68.5,30.00,SSW,200,7.0,12.0,80,0.00,,,0.00,Wunderground v.1.15,2013-06-17 06:22:00,
2013-06-17 02:27:00,75.1,68.5,30.00,SSW,211,6.0,8.0,80,0.00,,,0.00,Wunderground v.1.15,2013-06-17 06:27:00,
2013-06-17 02:32:00,75.1,68.5,30.00,SW,232,6.0,11.0,80,0.00,,,0.00,Wunderground v.1.15,2013-06-17 06:32:00,
2013-06-17 02:37:00,75.1,68.5,30.00,SW,234,10.0,11.0,80,0.00,,,0.00,Wunderground v.1.15,2013-06-17 06:37:00,
2013-06-17 02:42:00,75.0,68.4,30.00,SSW,213,5.0,11.0,80,0.00,,,0.00,Wunderground v.1.15,2013-06-17 06:42:00,
2013-06-17 02:47:00,74.9,68.3,30.02,NW,313,5.0,8.0,80,0.00,,,0.00,Wunderground v.1.15,2013-06-17 06:47:00,
2013-06-17 02:52:00,74.8,68.6,30.04,ESE,107,1.0,11.0,81,0.00,,,0.00,Wunderground v.1.15,2013-06-17 06:52:00,
2013-06-17 02:57:00,74.8,68.6,30.03,West,263,4.0,8.0,81,0.00,,,0.00,Wunderground v.1.15,2013-06-17 06:57:00,
2013-06-17 03:02:00,74.7,68.5,30.02,WSW,256,3.0,8.0,81,0.00,,,0.00,Wunderground v.1.15,2013-06-17 07:02:00,
2013-06-17 03:07:00,74.7,68.8,30.02,WSW,252,1.0,6.0,82,0.00,,,0.00,Wunderground v.1.15,2013-06-17 07:07:00,
2013-06-17 03:12:00,74.7,68.8,30.02,SW,220,3.0,8.0,82,0.00,,,0.00,Wunderground v.1.15,2013-06-17 07:12:00,
2013-06-17 03:17:00,74.8,68.6,30.02,SW,217,0.0,6.0,81,0.00,,,0.00,Wunderground v.1.15,2013-06-17 07:17:00,
2013-06-17 03:22:00,74.8,68.6,30.02,SW,217,0.0,6.0,81,0.00,,,0.00,Wunderground v.1.15,2013-06-17 07:22:00,
2013-06-17 03:27:00,74.9,68.7,30.02,SW,217,0.0,1.0,81,0.00,,,0.00,Wunderground v.1.15,2013-06-17 07:27:00,
2013-06-17 03:32:00,74.9,68.7,30.02,SW,217,0.0,1.0,81,0.00,,,0.00,Wunderground v.1.15,2013-06-17 07:32:00,
2013-06-17 03:37:00,74.9,68.7,30.03,SW,217,0.0,0.0,81,0.00,,,0.00,Wunderground v.1.15,2013-06-17 07:37:00,
2013-06-17 03:42:00,74.9,68.7,30.02,SW,216,0.0,0.0,81,0.00,,,0.00,Wunderground v.1.15,2013-06-17 07:42:00,
2013-06-17 03:47:00,74.8,68.2,30.02,NE,36,0.0,4.0,80,0.00,,,0.00,Wunderground v.1.15,2013-06-17 07:47:00,
2013-06-17 03:52:00,74.8,68.2,30.02,NE,36,0.0,4.0,80,0.00,,,0.00,Wunderground v.1.15,2013-06-17 07:52:00,
2013-06-17 03:57:00,74.6,67.7,30.02,NW,317,0.0,5.0,79,0.00,,,0.00,Wunderground v.1.15,2013-06-17 07:57:00,
2013-06-17 04:03:00,74.5,67.2,30.02,North,9,0.0,6.0,78,0.00,,,0.00,Wunderground v.1.15,2013-06-17 08:03:00,
2013-06-17 04:08:00,74.4,67.1,30.02,North,9,0.0,1.0,78,0.00,,,0.00,Wunderground v.1.15,2013-06-17 08:08:00,
2013-06-17 04:13:00,74.2,66.9,30.01,North,9,0.0,1.0,78,0.00,,,0.00,Wunderground v.1.15,2013-06-17 08:13:00,
2013-06-17 04:18:00,74.1,67.2,30.01,North,9,0.0,0.0,79,0.00,,,0.00,Wunderground v.1.15,2013-06-17 08:18:00,
2013-06-17 04:23:00,74.0,67.1,30.01,North,9,0.0,0.0,79,0.00,,,0.00,Wunderground v.1.15,2013-06-17 08:23:00,
2013-06-17 04:28:00,73.8,66.9,30.01,North,9,0.0,0.0,79,0.00,,,0.00,Wunderground v.1.15,2013-06-17 08:28:00,
2013-06-17 04:33:00,73.7,67.1,30.01,North,9,0.0,0.0,80,0.00,,,0.00,Wunderground v.1.15,2013-06-17 08:33:00,
2013-06-17 04:38:00,73.5,66.6,30.01,North,9,0.0,0.0,79,0.00,,,0.00,Wunderground v.1.15,2013-06-17 08:38:00,
2013-06-17 04:43:00,73.4,67.2,30.01,North,9,0.0,0.0,81,0.00,,,0.00,Wunderground v.1.15,2013-06-17 08:43:00,
2013-06-17 04:48:00,73.3,67.1,30.01,North,9,0.0,0.0,81,0.00,,,0.00,Wunderground v.1.15,2013-06-17 08:48:00,
2013-06-17 04:53:00,73.2,67.4,30.00,North,9,0.0,0.0,82,0.00,,,0.00,Wunderground v.1.15,2013-06-17 08:53:00,
2013-06-17 04:58:00,73.1,67.6,30.00,North,9,0.0,0.0,83,0.00,,,0.00,Wunderground v.1.15,2013-06-17 08:58:00,
2013-06-17 05:03:00,72.9,67.4,30.01,North,9,0.0,2.0,83,0.00,,,0.00,Wunderground v.1.15,2013-06-17 09:03:00,
2013-06-17 05:08:00,72.8,67.3,30.00,North,9,0.0,0.0,83,0.00,,,0.00,Wunderground v.1.15,2013-06-17 09:08:00,
2013-06-17 05:13:00,72.6,67.5,30.01,North,9,0.0,0.0,84,0.00,,,0.00,Wunderground v.1.15,2013-06-17 09:13:00,
2013-06-17 05:18:00,72.4,67.6,30.01,North,9,2.0,2.0,85,0.00,,,0.00,Wunderground v.1.15,2013-06-17 09:18:00,
2013-06-17 05:23:00,72.1,67.3,30.00,North,9,0.0,3.0,85,0.00,,,0.00,Wunderground v.1.15,2013-06-17 09:23:00,
2013-06-17 05:28:00,71.9,67.5,30.01,North,9,0.0,0.0,86,0.00,,,0.00,Wunderground v.1.15,2013-06-17 09:28:00,
2013-06-17 05:33:00,71.8,67.4,30.01,North,9,0.0,0.0,86,0.00,,,0.00,Wunderground v.1.15,2013-06-17 09:33:00,
2013-06-17 05:38:00,71.8,67.4,30.01,North,9,0.0,0.0,86,0.00,,,0.00,Wunderground v.1.15,2013-06-17 09:38:00,
2013-06-17 05:43:00,71.8,67.4,30.00,North,9,0.0,0.0,86,0.00,,,0.00,Wunderground v.1.15,2013-06-17 09:43:00,
2013-06-17 05:48:00,71.8,67.4,30.00,North,9,0.0,0.0,86,0.00,,,0.00,Wunderground v.1.15,2013-06-17 09:48:00,
2013-06-17 05:53:00,71.7,67.3,30.00,North,9,0.0,0.0,86,0.00,,,0.00,Wunderground v.1.15,2013-06-17 09:53:00,
2013-06-17 05:58:00,71.7,67.3,29.99,North,9,0.0,0.0,86,0.00,,,0.00,Wunderground v.1.15,2013-06-17 09:58:00,
2013-06-17 06:03:00,71.8,67.7,29.99,North,9,0.0,0.0,87,0.00,,,0.00,Wunderground v.1.15,2013-06-17 10:03:00,
2013-06-17 06:08:00,71.7,67.6,30.00,South,169,0.0,0.0,87,0.00,,,0.00,Wunderground v.1.15,2013-06-17 10:08:00,
2013-06-17 06:13:00,71.7,67.6,30.00,South,169,0.0,0.0,87,0.00,,,0.00,Wunderground v.1.15,2013-06-17 10:13:00,
2013-06-17 06:18:00,71.6,67.5,30.00,South,169,0.0,0.0,87,0.00,,,0.00,Wunderground v.1.15,2013-06-17 10:18:00,
2013-06-17 06:23:00,71.6,67.5,30.00,South,169,0.0,0.0,87,0.00,,,0.00,Wunderground v.1.15,2013-06-17 10:23:00,
2013-06-17 06:28:00,71.5,67.4,30.00,South,169,0.0,0.0,87,0.00,,,0.00,Wunderground v.1.15,2013-06-17 10:28:00,
2013-06-17 06:34:00,71.4,67.3,30.00,South,171,0.0,0.0,87,0.00,,,0.00,Wunderground v.1.15,2013-06-17 10:34:00,
2013-06-17 06:39:00,71.3,67.6,30.00,South,171,0.0,0.0,88,0.00,,,0.00,Wunderground v.1.15,2013-06-17 10:39:00,
2013-06-17 06:44:00,71.3,67.6,30.01,South,171,0.0,0.0,88,0.00,,,0.00,Wunderground v.1.15,2013-06-17 10:44:00,
2013-06-17 06:49:00,71.2,67.8,30.01,NNW,340,0.0,0.0,89,0.00,,,0.00,Wunderground v.1.15,2013-06-17 10:49:00,
2013-06-17 06:54:00,71.1,67.7,30.01,NNW,340,0.0,0.0,89,0.00,,,0.00,Wunderground v.1.15,2013-06-17 10:54:00,
2013-06-17 06:59:00,71.0,67.9,30.02,NNW,340,0.0,0.0,90,0.00,,,0.00,Wunderground v.1.15,2013-06-17 10:59:00,
2013-06-17 07:04:00,70.8,67.7,30.02,NNW,340,0.0,0.0,90,0.00,,,0.00,Wunderground v.1.15,2013-06-17 11:04:00,
2013-06-17 07:09:00,70.7,67.9,30.02,NNW,340,0.0,0.0,91,0.00,,,0.00,Wunderground v.1.15,2013-06-17 11:09:00,
2013-06-17 07:14:00,70.4,67.6,30.02,NNW,339,0.0,0.0,91,0.00,,,0.00,Wunderground v.1.15,2013-06-17 11:14:00,
2013-06-17 07:19:00,70.3,67.9,30.01,NNW,339,0.0,0.0,92,0.00,,,0.00,Wunderground v.1.15,2013-06-17 11:19:00,
2013-06-17 07:24:00,70.1,67.7,30.01,NNW,339,0.0,0.0,92,0.00,,,0.00,Wunderground v.1.15,2013-06-17 11:24:00,
2013-06-17 07:29:00,70.1,67.7,30.01,NNW,338,0.0,1.0,92,0.00,,,0.00,Wunderground v.1.15,2013-06-17 11:29:00,
2013-06-17 07:34:00,70.1,68.0,30.01,NNW,338,0.0,0.0,93,0.00,,,0.00,Wunderground v.1.15,2013-06-17 11:34:00,
2013-06-17 07:39:00,70.1,68.0,30.01,NNW,338,0.0,0.0,93,0.00,,,0.00,Wunderground v.1.15,2013-06-17 11:39:00,
2013-06-17 07:44:00,70.0,67.9,30.01,NNW,338,0.0,0.0,93,0.00,,,0.00,Wunderground v.1.15,2013-06-17 11:44:00,
2013-06-17 07:49:00,70.0,67.9,30.00,NNW,338,0.0,0.0,93,0.00,,,0.00,Wunderground v.1.15,2013-06-17 11:49:00,
2013-06-17 07:54:00,70.0,67.6,30.01,NNW,338,0.0,0.0,92,0.00,,,0.00,Wunderground v.1.15,2013-06-17 11:54:00,
2013-06-17 07:59:00,70.0,67.9,30.01,NNW,332,1.0,4.0,93,0.00,,,0.00,Wunderground v.1.15,2013-06-17 11:59:00,
2013-06-17 08:04:00,70.0,67.9,30.01,WNW,296,2.0,4.0,93,0.00,,,0.00,Wunderground v.1.15,2013-06-17 12:04:00,
2013-06-17 08:09:00,70.0,67.9,30.01,WNW,296,0.0,4.0,93,0.00,,,0.00,Wunderground v.1.15,2013-06-17 12:09:00,
2013-06-17 08:14:00,70.1,68.0,30.01,WNW,296,0.0,2.0,93,0.00,,,0.00,Wunderground v.1.15,2013-06-17 12:14:00,
2013-06-17 08:19:00,70.1,68.0,30.01,WNW,296,0.0,2.0,93,0.00,,,0.00,Wunderground v.1.15,2013-06-17 12:19:00,
2013-06-17 08:24:00,70.1,68.0,30.01,WNW,296,0.0,0.0,93,0.00,,,0.00,Wunderground v.1.15,2013-06-17 12:24:00,
2013-06-17 08:29:00,70.2,68.1,30.01,WNW,296,0.0,0.0,93,0.00,,,0.00,Wunderground v.1.15,2013-06-17 12:29:00,
2013-06-17 08:34:00,70.2,67.8,30.01,WNW,296,2.0,2.0,92,0.00,,,0.00,Wunderground v.1.15,2013-06-17 12:34:00,
2013-06-17 08:39:00,70.2,68.1,30.01,WNW,296,0.0,4.0,93,0.00,,,0.00,Wunderground v.1.15,2013-06-17 12:39:00,
2013-06-17 08:44:00,70.2,67.8,30.01,WNW,296,0.0,2.0,92,0.00,,,0.00,Wunderground v.1.15,2013-06-17 12:44:00,
2013-06-17 08:49:00,70.2,67.8,30.01,WNW,296,0.0,4.0,92,0.00,,,0.00,Wunderground v.1.15,2013-06-17 12:49:00,
2013-06-17 08:54:00,70.3,67.9,30.01,WNW,296,0.0,1.0,92,0.00,,,0.00,Wunderground v.1.15,2013-06-17 12:54:00,
2013-06-17 08:59:00,70.3,67.9,30.01,WNW,296,0.0,2.0,92,0.00,,,0.00,Wunderground v.1.15,2013-06-17 12:59:00,
2013-06-17 09:04:00,70.4,68.0,30.01,WNW,296,0.0,0.0,92,0.00,,,0.00,Wunderground v.1.15,2013-06-17 13:04:00,
2013-06-17 09:09:00,70.5,68.4,30.01,WNW,296,0.0,0.0,93,0.00,,,0.00,Wunderground v.1.15,2013-06-17 13:09:00,
2013-06-17 09:14:00,70.6,68.2,30.01,WNW,296,0.0,0.0,92,0.00,,,0.00,Wunderground v.1.15,2013-06-17 13:14:00,
2013-06-17 09:19:00,70.8,68.4,30.01,WNW,296,0.0,0.0,92,0.00,,,0.00,Wunderground v.1.15,2013-06-17 13:19:00,
2013-06-17 09:24:00,70.9,68.5,30.00,WNW,296,0.0,0.0,92,0.00,,,0.00,Wunderground v.1.15,2013-06-17 13:24:00,
2013-06-17 09:29:00,71.1,68.0,30.00,WNW,296,0.0,0.0,90,0.00,,,0.00,Wunderground v.1.15,2013-06-17 13:29:00,
2013-06-17 09:34:00,71.3,68.2,30.00,WNW,296,0.0,0.0,90,0.00,,,0.00,Wunderground v.1.15,2013-06-17 13:34:00,
2013-06-17 09:39:00,71.6,68.2,30.00,WNW,296,0.0,4.0,89,0.00,,,0.00,Wunderground v.1.15,2013-06-17 13:39:00,
2013-06-17 09:44:00,72.1,68.7,30.00,WNW,296,0.0,0.0,89,0.00,,,0.00,Wunderground v.1.15,2013-06-17 13:44:00,
2013-06-17 09:49:00,72.6,68.8,29.99,South,186,0.0,3.0,88,0.00,,,0.00,Wunderground v.1.15,2013-06-17 13:49:00,
2013-06-17 09:54:00,73.0,68.9,29.99,WSW,237,3.0,3.0,87,0.00,,,0.00,Wunderground v.1.15,2013-06-17 13:54:00,
2013-06-17 09:59:00,73.4,69.0,29.99,WSW,244,0.0,4.0,86,0.00,,,0.00,Wunderground v.1.15,2013-06-17 13:59:00,
2013-06-17 10:05:00,73.9,69.4,29.99,NNW,348,0.0,0.0,86,0.00,,,0.00,Wunderground v.1.15,2013-06-17 14:05:00,
2013-06-17 10:10:00,74.3,69.5,29.99,NNW,348,0.0,0.0,85,0.00,,,0.00,Wunderground v.1.15,2013-06-17 14:10:00,
2013-06-17 10:15:00,74.6,69.4,29.99,SW,219,0.0,2.0,84,0.00,,,0.00,Wunderground v.1.15,2013-06-17 14:15:00,
2013-06-17 10:20:00,74.9,69.7,29.99,SW,217,0.0,2.0,84,0.00,,,0.00,Wunderground v.1.15,2013-06-17 14:20:00,
2013-06-17 10:25:00,75.2,69.3,29.99,SW,236,3.0,5.0,82,0.00,,,0.00,Wunderground v.1.15,2013-06-17 14:25:00,
2013-06-17 10:30:00,75.3,69.1,29.99,WSW,251,0.0,6.0,81,0.00,,,0.00,Wunderground v.1.15,2013-06-17 14:30:00,
2013-06-17 10:35:00,75.3,69.4,29.99,West,261,0.0,1.0,82,0.00,,,0.00,Wunderground v.1.15,2013-06-17 14:35:00,
2013-06-17 10:40:00,75.5,69.3,29.99,West,261,0.0,1.0,81,0.00,,,0.00,Wunderground v.1.15,2013-06-17 14:40:00,
2013-06-17 10:45:00,75.7,69.8,29.99,West,261,0.0,0.0,82,0.00,,,0.00,Wunderground v.1.15,2013-06-17 14:45:00,
2013-06-17 10:50:00,76.0,69.7,29.99,West,261,1.0,2.0,81,0.00,,,0.00,Wunderground v.1.15,2013-06-17 14:50:00,
2013-06-17 10:55:00,76.4,70.1,29.99,West,260,0.0,1.0,81,0.00,,,0.00,Wunderground v.1.15,2013-06-17 14:55:00,
2013-06-17 11:00:00,76.8,70.5,29.99,WSW,248,0.0,5.0,81,0.00,,,0.00,Wunderground v.1.15,2013-06-17 15:00:00,
2013-06-17 11:05:00,77.3,70.6,29.99,SSW,201,3.0,3.0,80,0.00,,,0.00,Wunderground v.1.15,2013-06-17 15:05:00,
2013-06-17 11:10:00,77.8,70.8,29.99,SSW,200,1.0,4.0,79,0.00,,,0.00,Wunderground v.1.15,2013-06-17 15:10:00,
2013-06-17 11:15:00,78.2,70.8,30.00,SSW,194,4.0,5.0,78,0.00,,,0.00,Wunderground v.1.15,2013-06-17 15:15:00,
2013-06-17 11:20:00,78.3,70.1,29.99,SSW,202,1.0,5.0,76,0.00,,,0.00,Wunderground v.1.15,2013-06-17 15:20:00,
2013-06-17 11:25:00,78.3,71.2,29.99,SE,143,0.0,1.0,79,0.00,,,0.00,Wunderground v.1.15,2013-06-17 15:25:00,
2013-06-17 11:30:00,78.4,70.6,30.00,East,96,0.0,1.0,77,0.00,,,0.00,Wunderground v.1.15,2013-06-17 15:30:00,
2013-06-17 11:35:00,78.6,71.2,30.00,East,96,0.0,0.0,78,0.00,,,0.00,Wunderground v.1.15,2013-06-17 15:35:00,
2013-06-17 11:40:00,78.9,70.7,30.00,South,181,0.0,4.0,76,0.00,,,0.00,Wunderground v.1.15,2013-06-17 15:40:00,
2013-06-17 11:45:00,79.0,70.8,30.00,SW,216,2.0,4.0,76,0.00,,,0.00,Wunderground v.1.15,2013-06-17 15:45:00,
2013-06-17 11:51:00,79.4,71.2,29.99,SE,137,0.0,4.0,76,0.00,,,0.00,Wunderground v.1.15,2013-06-17 15:51:00,
2013-06-17 11:56:00,79.5,71.3,29.99,SSE,153,1.0,2.0,76,0.00,,,0.00,Wunderground v.1.15,2013-06-17 15:56:00,
2013-06-17 12:01:00,79.7,71.8,29.99,SSE,154,0.0,4.0,77,0.00,,,0.00,Wunderground v.1.15,2013-06-17 16:01:00,
2013-06-17 12:06:00,80.0,72.5,29.99,SSE,154,0.0,2.0,78,0.00,,,0.00,Wunderground v.1.15,2013-06-17 16:06:00,
2013-06-17 12:11:00,80.4,71.7,29.99,South,176,0.0,7.0,75,0.00,,,0.00,Wunderground v.1.15,2013-06-17 16:11:00,
2013-06-17 12:16:00,80.9,72.6,29.99,South,175,2.0,4.0,76,0.00,,,0.00,Wunderground v.1.15,2013-06-17 16:16:00,
2013-06-17 12:21:00,81.4,72.7,29.99,SSW,211,5.0,5.0,75,0.00,,,0.00,Wunderground v.1.15,2013-06-17 16:21:00,
2013-06-17 12:26:00,81.5,71.6,29.99,SSW,195,4.0,6.0,72,0.00,,,0.00,Wunderground v.1.15,2013-06-17 16:26:00,
2013-06-17 12:31:00,81.9,70.3,29.99,SW,231,6.0,10.0,68,0.00,,,0.00,Wunderground v.1.15,2013-06-17 16:31:00,
2013-06-17 12:36:00,82.2,70.6,29.99,SW,219,6.0,9.0,68,0.00,,,0.00,Wunderground v.1.15,2013-06-17 16:36:00,
2013-06-17 12:41:00,82.6,70.5,29.99,WSW,254,4.0,9.0,67,0.00,,,0.00,Wunderground v.1.15,2013-06-17 16:41:00,
2013-06-17 12:46:00,82.5,70.9,29.98,WSW,257,2.0,5.0,68,0.00,,,0.00,Wunderground v.1.15,2013-06-17 16:46:00,
2013-06-17 12:51:00,82.6,70.5,29.98,West,265,2.0,5.0,67,0.00,,,0.00,Wunderground v.1.15,2013-06-17 16:51:00,
2013-06-17 12:56:00,82.9,71.7,29.98,WSW,256,4.0,7.0,69,0.00,,,0.00,Wunderground v.1.15,2013-06-17 16:56:00,
2013-06-17 13:01:00,83.4,72.2,29.98,SW,218,4.0,7.0,69,0.00,,,0.00,Wunderground v.1.15,2013-06-17 17:01:00,
2013-06-17 13:06:00,84.2,71.2,29.98,West,259,7.0,7.0,65,0.00,,,0.00,Wunderground v.1.15,2013-06-17 17:06:00,
2013-06-17 13:11:00,84.8,70.3,29.98,SW,221,6.0,8.0,62,0.00,,,0.00,Wunderground v.1.15,2013-06-17 17:11:00,
2013-06-17 13:16:00,85.0,70.5,29.98,SSW,196,1.0,7.0,62,0.00,,,0.00,Wunderground v.1.15,2013-06-17 17:16:00,
2013-06-17 13:21:00,85.2,70.2,29.98,South,182,0.0,9.0,61,0.00,,,0.00,Wunderground v.1.15,2013-06-17 17:21:00,
2013-06-17 13:26:00,85.6,70.6,29.98,SW,222,4.0,7.0,61,0.00,,,0.00,Wunderground v.1.15,2013-06-17 17:26:00,
2013-06-17 13:31:00,85.5,70.5,29.98,WSW,241,5.0,8.0,61,0.00,,,0.00,Wunderground v.1.15,2013-06-17 17:31:00,
2013-06-17 13:36:00,85.2,70.7,29.99,WSW,244,0.0,6.0,62,0.00,,,0.00,Wunderground v.1.15,2013-06-17 17:36:00,
2013-06-17 13:41:00,85.1,70.6,29.98,SSW,209,3.0,6.0,62,0.00,,,0.00,Wunderground v.1.15,2013-06-17 17:41:00,
2013-06-17 13:46:00,85.4,70.4,29.98,SW,215,2.0,6.0,61,0.00,,,0.00,Wunderground v.1.15,2013-06-17 17:46:00,
2013-06-17 13:51:00,85.5,71.5,29.98,SW,231,3.0,6.0,63,0.00,,,0.00,Wunderground v.1.15,2013-06-17 17:51:00,
2013-06-17 13:57:00,85.5,72.4,29.98,SW,236,2.0,3.0,65,0.00,,,0.00,Wunderground v.1.15,2013-06-17 17:57:00,
2013-06-17 14:02:00,85.9,72.3,29.98,WSW,252,1.0,6.0,64,0.00,,,0.00,Wunderground v.1.15,2013-06-17 18:02:00,
2013-06-17 14:07:00,86.1,71.6,29.98,NE,46,1.0,4.0,62,0.00,,,0.00,Wunderground v.1.15,2013-06-17 18:07:00,
2013-06-17 14:12:00,85.7,71.7,29.97,NE,46,0.0,4.0,63,0.00,,,0.00,Wunderground v.1.15,2013-06-17 18:12:00,
2013-06-17 14:17:00,85.8,71.7,29.97,West,267,1.0,3.0,63,0.00,,,0.00,Wunderground v.1.15,2013-06-17 18:17:00,
2013-06-17 14:22:00,86.2,71.2,29.96,WSW,251,0.0,8.0,61,0.00,,,0.00,Wunderground v.1.15,2013-06-17 18:22:00,
2013-06-17 14:27:00,86.7,72.6,29.95,SSW,201,6.0,6.0,63,0.00,,,0.00,Wunderground v.1.15,2013-06-17 18:27:00,
2013-06-17 14:32:00,86.9,71.8,29.95,SW,214,0.0,6.0,61,0.00,,,0.00,Wunderground v.1.15,2013-06-17 18:32:00,
2013-06-17 14:37:00,86.9,71.3,29.94,SW,219,4.0,8.0,60,0.00,,,0.00,Wunderground v.1.15,2013-06-17 18:37:00,
2013-06-17 14:42:00,86.8,71.2,29.94,SW,217,2.0,8.0,60,0.00,,,0.00,Wunderground v.1.15,2013-06-17 18:42:00,
2013-06-17 14:47:00,86.5,71.9,29.94,WSW,250,1.0,5.0,62,0.00,,,0.00,Wunderground v.1.15,2013-06-17 18:47:00,
2013-06-17 14:52:00,86.3,72.2,29.94,WSW,250,0.0,5.0,63,0.00,,,0.00,Wunderground v.1.15,2013-06-17 18:52:00,
2013-06-17 14:57:00,86.5,72.9,29.93,WSW,250,3.0,3.0,64,0.00,,,0.00,Wunderground v.1.15,2013-06-17 18:57:00,
2013-06-17 15:02:00,86.9,72.8,29.93,WSW,250,0.0,4.0,63,0.00,,,0.00,Wunderground v.1.15,2013-06-17 19:02:00,
2013-06-17 15:07:00,87.4,72.3,29.93,WSW,251,0.0,3.0,61,0.00,,,0.00,Wunderground v.1.15,2013-06-17 19:07:00,
2013-06-17 15:12:00,87.2,72.1,29.93,WSW,240,5.0,5.0,61,0.00,,,0.00,Wunderground v.1.15,2013-06-17 19:12:00,
2013-06-17 15:17:00,87.1,71.5,29.93,SW,225,3.0,5.0,60,0.00,,,0.00,Wunderground v.1.15,2013-06-17 19:17:00,
2013-06-17 15:22:00,87.1,72.0,29.92,SW,225,0.0,5.0,61,0.00,,,0.00,Wunderground v.1.15,2013-06-17 19:22:00,
2013-06-17 15:27:00,87.3,71.7,29.92,SW,226,3.0,4.0,60,0.00,,,0.00,Wunderground v.1.15,2013-06-17 19:27:00,
2013-06-17 15:32:00,87.5,71.9,29.92,SW,229,3.0,6.0,60,0.00,,,0.00,Wunderground v.1.15,2013-06-17 19:32:00,
2013-06-17 15:37:00,87.6,71.5,29.92,North,350,0.0,4.0,59,0.00,,,0.00,Wunderground v.1.15,2013-06-17 19:37:00,
2013-06-17 15:42:00,87.8,72.2,29.92,North,350,2.0,4.0,60,0.00,,,0.00,Wunderground v.1.15,2013-06-17 19:42:00,
2013-06-17 15:47:00,87.9,72.3,29.91,West,277,0.0,2.0,60,0.00,,,0.00,Wunderground v.1.15,2013-06-17 19:47:00,
2013-06-17 15:52:00,88.2,71.6,29.91,SSW,213,1.0,10.0,58,0.00,,,0.00,Wunderground v.1.15,2013-06-17 19:52:00,
2013-06-17 15:58:00,86.7,74.0,29.92,WSW,240,11.0,19.0,66,0.00,,,0.00,Wunderground v.1.15,2013-06-17 19:58:00,
2013-06-17 16:03:00,85.7,74.4,29.91,SW,229,5.0,19.0,69,0.00,,,0.00,Wunderground v.1.15,2013-06-17 20:03:00,
2013-06-17 16:08:00,85.3,73.1,29.92,SSW,212,5.0,9.0,67,0.00,,,0.00,Wunderground v.1.15,2013-06-17 20:08:00,
2013-06-17 16:13:00,85.2,73.9,29.92,SSW,197,6.0,9.0,69,0.00,,,0.00,Wunderground v.1.15,2013-06-17 20:13:00,
2013-06-17 16:18:00,85.4,73.6,29.91,South,182,13.0,13.0,68,0.00,,,0.00,Wunderground v.1.15,2013-06-17 20:18:00,
2013-06-17 16:23:00,85.1,72.9,29.92,SSW,200,10.0,16.0,67,0.00,,,0.00,Wunderground v.1.15,2013-06-17 20:23:00,
2013-06-17 16:24:00,86.3,75.8,30.04,SSE,155,0.0,0.0,71,0.00,,,0.01,Wunderground v.1.15,2013-06-17 20:24:00,
2013-06-17 16:25:00,86.2,75.7,30.04,SSE,155,0.0,0.0,71,0.00,,,0.01,Wunderground v.1.15,2013-06-17 20:25:00,
2013-06-17 16:26:00,86.1,75.2,30.04,SSE,155,0.0,0.0,70,0.00,,,0.01,Wunderground v.1.15,2013-06-17 20:26:00,
2013-06-17 16:27:00,86.0,75.5,30.04,SSE,155,0.0,0.0,71,0.00,,,0.01,Wunderground v.1.15,2013-06-17 20:27:00,
2013-06-17 16:28:00,84.6,73.3,29.92,South,171,9.0,12.0,69,0.00,,,0.00,Wunderground v.1.15,2013-06-17 20:28:00,
2013-06-17 16:29:00,85.9,75.4,30.04,SSE,155,0.0,0.0,71,0.00,,,0.01,Wunderground v.1.15,2013-06-17 20:29:00,
2013-06-17 16:30:00,85.9,75.8,30.04,SSE,155,0.0,0.0,72,0.00,,,0.01,Wunderground v.1.15,2013-06-17 20:30:00,
2013-06-17 16:31:00,85.8,76.5,30.04,SSE,155,0.0,0.0,74,0.00,,,0.01,Wunderground v.1.15,2013-06-17 20:31:00,
2013-06-17 16:33:00,84.1,72.8,29.92,SW,217,5.0,15.0,69,0.00,,,0.00,Wunderground v.1.15,2013-06-17 20:33:00,
2013-06-17 16:38:00,83.4,72.6,29.92,WSW,243,7.0,9.0,70,0.00,,,0.00,Wunderground v.1.15,2013-06-17 20:38:00,
2013-06-17 16:43:00,82.9,74.6,29.92,South,181,7.0,10.0,76,0.00,,,0.00,Wunderground v.1.15,2013-06-17 20:43:00,
2013-06-17 16:48:00,81.9,75.1,29.92,SSW,207,7.0,10.0,80,0.00,,,0.01,Wunderground v.1.15,2013-06-17 20:48:00,
2013-06-17 16:53:00,80.9,75.6,29.92,SSW,199,4.0,10.0,84,0.19,,,0.04,Wunderground v.1.15,2013-06-17 20:53:00,
2013-06-17 16:58:00,80.3,75.4,29.92,SSW,201,0.0,4.0,85,0.36,,,0.07,Wunderground v.1.15,2013-06-17 20:58:00,
2013-06-17 17:03:00,80.1,75.5,29.92,SSW,201,0.0,4.0,86,0.18,,,0.08,Wunderground v.1.15,2013-06-17 21:03:00,
2013-06-17 17:08:00,80.3,76.4,29.91,SSW,200,0.0,4.0,88,0.07,,,0.08,Wunderground v.1.15,2013-06-17 21:08:00,
2013-06-17 17:13:00,80.6,75.7,29.91,South,182,2.0,5.0,85,0.05,,,0.08,Wunderground v.1.15,2013-06-17 21:13:00,
2013-06-17 17:18:00,81.0,74.6,29.91,SSW,203,8.0,9.0,81,0.00,,,0.08,Wunderground v.1.15,2013-06-17 21:18:00,
2013-06-17 17:23:00,81.2,73.3,29.91,South,191,7.0,10.0,77,0.00,,,0.08,Wunderground v.1.15,2013-06-17 21:23:00,
2013-06-17 17:28:00,81.3,73.0,29.92,SSW,196,4.0,10.0,76,0.00,,,0.08,Wunderground v.1.15,2013-06-17 21:28:00,
2013-06-17 17:33:00,81.3,73.0,29.91,South,190,2.0,10.0,76,0.00,,,0.08,Wunderground v.1.15,2013-06-17 21:33:00,
2013-06-17 17:38:00,81.4,73.1,29.91,South,175,1.0,7.0,76,0.00,,,0.08,Wunderground v.1.15,2013-06-17 21:38:00,
2013-06-17 17:43:00,81.8,74.3,29.91,South,188,0.0,7.0,78,0.00,,,0.08,Wunderground v.1.15,2013-06-17 21:43:00,
2013-06-17 17:48:00,82.0,75.2,29.91,South,188,0.0,3.0,80,0.00,,,0.08,Wunderground v.1.15,2013-06-17 21:48:00,
2013-06-17 17:53:00,81.8,75.8,29.91,South,188,0.0,3.0,82,0.00,,,0.08,Wunderground v.1.15,2013-06-17 21:53:00,
2013-06-17 17:58:00,81.5,75.1,29.91,South,188,0.0,0.0,81,0.00,,,0.08,Wunderground v.1.15,2013-06-17 21:58:00,
2013-06-17 18:03:00,81.1,74.7,29.91,South,188,0.0,0.0,81,0.00,,,0.08,Wunderground v.1.15,2013-06-17 22:03:00,
2013-06-17 18:08:00,80.5,75.2,29.90,South,179,0.0,0.0,84,0.00,,,0.08,Wunderground v.1.15,2013-06-17 22:08:00,
2013-06-17 18:13:00,79.9,75.3,29.90,South,178,0.0,0.0,86,0.00,,,0.08,Wunderground v.1.15,2013-06-17 22:13:00,
2013-06-17 18:18:00,79.4,74.8,29.90,South,178,0.0,0.0,86,0.00,,,0.08,Wunderground v.1.15,2013-06-17 22:18:00,
2013-06-17 18:23:00,79.1,74.9,29.90,South,178,0.0,0.0,87,0.00,,,0.08,Wunderground v.1.15,2013-06-17 22:23:00,
2013-06-17 18:28:00,78.9,75.0,29.90,South,178,0.0,0.0,88,0.00,,,0.08,Wunderground v.1.15,2013-06-17 22:28:00,
2013-06-17 18:33:00,78.7,75.2,29.90,South,178,0.0,0.0,89,0.00,,,0.08,Wunderground v.1.15,2013-06-17 22:33:00,
2013-06-17 18:38:00,78.4,74.9,29.91,South,178,0.0,0.0,89,0.00,,,0.08,Wunderground v.1.15,2013-06-17 22:38:00,
2013-06-17 18:43:00,78.1,74.9,29.92,East,86,0.0,2.0,90,0.00,,,0.08,Wunderground v.1.15,2013-06-17 22:43:00,
2013-06-17 18:48:00,77.9,74.7,29.92,East,86,0.0,0.0,90,0.00,,,0.08,Wunderground v.1.15,2013-06-17 22:48:00,
2013-06-17 18:53:00,77.7,74.5,29.93,East,86,0.0,0.0,90,0.00,,,0.08,Wunderground v.1.15,2013-06-17 22:53:00,
2013-06-17 18:58:00,77.5,74.7,29.93,East,86,0.0,0.0,91,0.00,,,0.08,Wunderground v.1.15,2013-06-17 22:58:00,
2013-06-17 19:03:00,77.5,74.7,29.92,East,86,0.0,0.0,91,0.00,,,0.08,Wunderground v.1.15,2013-06-17 23:03:00,
2013-06-17 19:08:00,77.4,74.9,29.93,ENE,63,4.0,7.0,92,0.00,,,0.08,Wunderground v.1.15,2013-06-17 23:08:00,
2013-06-17 19:13:00,76.4,72.6,29.93,ENE,67,3.0,8.0,88,0.00,,,0.08,Wunderground v.1.15,2013-06-17 23:13:00,
2013-06-17 19:19:00,75.9,72.4,29.93,ENE,66,0.0,4.0,89,0.00,,,0.08,Wunderground v.1.15,2013-06-17 23:19:00,
2013-06-17 19:24:00,75.7,72.9,29.94,ENE,62,2.0,4.0,91,0.00,,,0.08,Wunderground v.1.15,2013-06-17 23:24:00,
2013-06-17 19:29:00,75.5,72.4,29.94,ENE,62,0.0,2.0,90,0.00,,,0.08,Wunderground v.1.15,2013-06-17 23:29:00,
2013-06-17 19:34:00,75.5,72.4,29.94,ENE,62,0.0,0.0,90,0.00,,,0.08,Wunderground v.1.15,2013-06-17 23:34:00,
2013-06-17 19:39:00,75.4,72.3,29.94,ENE,62,0.0,0.0,90,0.00,,,0.08,Wunderground v.1.15,2013-06-17 23:39:00,
2013-06-17 19:44:00,75.5,73.0,29.94,ENE,62,0.0,0.0,92,0.00,,,0.08,Wunderground v.1.15,2013-06-17 23:44:00,
2013-06-17 19:49:00,75.6,73.1,29.94,ENE,62,0.0,0.0,92,0.00,,,0.08,Wunderground v.1.15,2013-06-17 23:49:00,
2013-06-17 19:54:00,75.6,72.8,29.96,WSW,247,10.0,10.0,91,0.00,,,0.08,Wunderground v.1.15,2013-06-17 23:54:00,
2013-06-17 19:59:00,75.0,69.8,29.96,SW,223,16.0,21.0,84,0.00,,,0.08,Wunderground v.1.15,2013-06-17 23:59:00,
2013-06-17 20:04:00,73.2,69.4,29.97,SSW,197,8.0,13.0,88,1.63,,,0.14,Wunderground v.1.15,2013-06-18 00:04:00,
2013-06-17 20:09:00,71.8,69.0,29.96,WSW,242,6.0,13.0,91,1.07,,,0.26,Wunderground v.1.15,2013-06-18 00:09:00,
2013-06-17 20:14:00,71.0,68.6,29.95,West,259,2.0,6.0,92,0.39,,,0.29,Wunderground v.1.15,2013-06-18 00:14:00,
2013-06-17 20:19:00,70.6,68.5,29.94,SW,235,1.0,6.0,93,0.10,,,0.29,Wunderground v.1.15,2013-06-18 00:19:00,
2013-06-17 20:24:00,70.3,68.5,29.93,SW,235,0.0,2.0,94,0.09,,,0.30,Wunderground v.1.15,2013-06-18 00:24:00,
2013-06-17 20:29:00,70.2,68.4,29.92,SW,235,0.0,2.0,94,0.07,,,0.30,Wunderground v.1.15,2013-06-18 00:29:00,
2013-06-17 20:34:00,70.1,68.6,29.92,SW,235,0.0,0.0,95,0.04,,,0.30,Wunderground v.1.15,2013-06-18 00:34:00,
2013-06-17 20:39:00,70.1,68.6,29.92,SW,235,0.0,0.0,95,0.00,,,0.30,Wunderground v.1.15,2013-06-18 00:39:00,
2013-06-17 20:44:00,70.3,69.1,29.92,SW,235,4.0,5.0,96,0.00,,,0.30,Wunderground v.1.15,2013-06-18 00:44:00,
2013-06-17 20:49:00,70.7,69.5,29.92,SW,235,2.0,5.0,96,0.00,,,0.31,Wunderground v.1.15,2013-06-18 00:49:00,
2013-06-17 20:54:00,70.7,69.5,29.92,SW,235,2.0,3.0,96,0.00,,,0.31,Wunderground v.1.15,2013-06-18 00:54:00,
2013-06-17 21:00:00,70.7,69.5,29.92,SW,222,4.0,6.0,96,0.00,,,0.31,Wunderground v.1.15,2013-06-18 01:00:00,
2013-06-17 21:05:00,70.6,69.1,29.92,SSW,200,5.0,5.0,95,0.00,,,0.31,Wunderground v.1.15,2013-06-18 01:05:00,
2013-06-17 21:10:00,70.6,69.1,29.92,SSW,200,2.0,5.0,95,0.00,,,0.31,Wunderground v.1.15,2013-06-18 01:10:00,
2013-06-17 21:15:00,70.5,69.0,29.92,SSW,200,3.0,4.0,95,0.00,,,0.31,Wunderground v.1.15,2013-06-18 01:15:00,
2013-06-17 21:20:00,70.6,69.4,29.92,SSW,200,4.0,5.0,96,0.00,,,0.31,Wunderground v.1.15,2013-06-18 01:20:00,
2013-06-17 21:25:00,70.8,69.6,29.92,SSW,200,3.0,3.0,96,0.00,,,0.31,Wunderground v.1.15,2013-06-18 01:25:00,
2013-06-17 21:30:00,70.7,69.2,29.92,SSW,200,2.0,5.0,95,0.00,,,0.31,Wunderground v.1.15,2013-06-18 01:30:00,
2013-06-17 21:35:00,70.6,69.1,29.92,SSW,200,3.0,4.0,95,0.00,,,0.31,Wunderground v.1.15,2013-06-18 01:35:00,
2013-06-17 21:40:00,70.5,69.0,29.92,SSW,200,3.0,4.0,95,0.00,,,0.31,Wunderground v.1.15,2013-06-18 01:40:00,
2013-06-17 21:45:00,70.4,68.9,29.92,SSW,200,4.0,4.0,95,0.00,,,0.31,Wunderground v.1.15,2013-06-18 01:45:00,
2013-06-17 21:50:00,70.4,68.9,29.92,SSW,200,4.0,5.0,95,0.00,,,0.31,Wunderground v.1.15,2013-06-18 01:50:00,
2013-06-17 21:55:00,70.6,69.1,29.93,SSW,200,3.0,5.0,95,0.00,,,0.31,Wunderground v.1.15,2013-06-18 01:55:00,
2013-06-17 22:00:00,70.5,69.0,29.93,South,190,6.0,8.0,95,0.00,,,0.31,Wunderground v.1.15,2013-06-18 02:00:00,
2013-06-17 22:05:00,70.5,69.0,29.94,SSW,200,5.0,8.0,95,0.00,,,0.31,Wunderground v.1.15,2013-06-18 02:05:00,
2013-06-17 22:10:00,70.6,69.1,29.95,SW,220,5.0,12.0,95,0.00,,,0.31,Wunderground v.1.15,2013-06-18 02:10:00,
2013-06-17 22:15:00,70.6,69.1,29.95,SW,229,3.0,8.0,95,0.00,,,0.31,Wunderground v.1.15,2013-06-18 02:15:00,
2013-06-17 22:20:00,70.6,69.1,29.95,SSW,192,6.0,11.0,95,0.00,,,0.31,Wunderground v.1.15,2013-06-18 02:20:00,
2013-06-17 22:25:00,70.8,69.6,29.95,SSW,200,4.0,6.0,96,0.00,,,0.31,Wunderground v.1.15,2013-06-18 02:25:00,
2013-06-17 22:30:00,70.9,69.7,29.95,South,189,3.0,7.0,96,0.00,,,0.31,Wunderground v.1.15,2013-06-18 02:30:00,
2013-06-17 22:35:00,70.9,69.7,29.96,SSW,202,4.0,4.0,96,0.00,,,0.31,Wunderground v.1.15,2013-06-18 02:35:00,
2013-06-17 22:40:00,71.0,69.8,29.96,SSW,202,0.0,5.0,96,0.00,,,0.31,Wunderground v.1.15,2013-06-18 02:40:00,
2013-06-17 22:45:00,70.9,69.7,29.96,SSW,203,0.0,1.0,96,0.00,,,0.31,Wunderground v.1.15,2013-06-18 02:45:00,
2013-06-17 22:50:00,71.0,69.8,29.96,SSW,203,0.0,1.0,96,0.00,,,0.31,Wunderground v.1.15,2013-06-18 02:50:00,
2013-06-17 22:55:00,71.0,69.8,29.96,SSW,203,0.0,0.0,96,0.00,,,0.31,Wunderground v.1.15,2013-06-18 02:55:00,
2013-06-17 23:00:00,71.0,69.8,29.97,SSW,203,0.0,0.0,96,0.00,,,0.31,Wunderground v.1.15,2013-06-18 03:00:00,
2013-06-17 23:05:00,71.1,69.9,29.97,SSW,203,0.0,0.0,96,0.00,,,0.31,Wunderground v.1.15,2013-06-18 03:05:00,
2013-06-17 23:11:00,71.1,69.9,29.96,SSW,203,0.0,2.0,96,0.00,,,0.31,Wunderground v.1.15,2013-06-18 03:11:00,
2013-06-17 23:16:00,71.2,70.0,29.96,SSW,205,4.0,5.0,96,0.00,,,0.31,Wunderground v.1.15,2013-06-18 03:16:00,
2013-06-17 23:21:00,71.5,70.3,29.96,SSW,205,3.0,7.0,96,0.00,,,0.31,Wunderground v.1.15,2013-06-18 03:21:00,
2013-06-17 23:26:00,71.6,70.4,29.95,SSW,205,3.0,5.0,96,0.00,,,0.31,Wunderground v.1.15,2013-06-18 03:26:00,
2013-06-17 23:31:00,71.7,70.5,29.95,SSW,205,3.0,5.0,96,0.00,,,0.31,Wunderground v.1.15,2013-06-18 03:31:00,
2013-06-17 23:36:00,71.8,70.6,29.95,SSW,205,4.0,4.0,96,0.00,,,0.31,Wunderground v.1.15,2013-06-18 03:36:00,
2013-06-17 23:41:00,71.8,70.3,29.95,SSW,203,3.0,6.0,95,0.00,,,0.31,Wunderground v.1.15,2013-06-18 03:41:00,
2013-06-17 23:46:00,71.9,70.4,29.94,SSW,203,3.0,4.0,95,0.00,,,0.31,Wunderground v.1.15,2013-06-18 03:46:00,
2013-06-17 23:47:00,76.9,74.4,30.07,East,98,0.0,0.0,92,0.00,,,0.01,Wunderground v.1.15,2013-06-18 03:47:00,
2013-06-17 23:48:00,76.8,74.3,30.07,East,98,0.0,0.0,92,0.00,,,0.01,Wunderground v.1.15,2013-06-18 03:48:00,
2013-06-17 23:49:00,76.8,74.3,30.07,East,98,0.0,0.0,92,0.00,,,0.01,Wunderground v.1.15,2013-06-18 03:49:00,
2013-06-17 23:50:00,76.8,74.3,30.07,East,98,0.0,0.0,92,0.00,,,0.01,Wunderground v.1.15,2013-06-18 03:50:00,
2013-06-17 23:51:00,71.9,70.4,29.94,SSW,202,3.0,6.0,95,0.00,,,0.31,Wunderground v.1.15,2013-06-18 03:51:00,
2013-06-17 23:52:00,76.8,74.3,30.07,East,98,0.0,0.0,92,0.00,,,0.00,Wunderground v.1.15,2013-06-18 03:52:00,
2013-06-17 23:53:00,76.8,74.3,30.08,East,98,0.0,0.0,92,0.00,,,0.00,Wunderground v.1.15,2013-06-18 03:53:00,
2013-06-17 23:54:00,76.8,74.3,30.08,East,98,0.0,0.0,92,0.00,,,0.00,Wunderground v.1.15,2013-06-18 03:54:00,
2013-06-17 23:55:00,76.8,74.6,30.07,East,98,0.0,0.0,93,0.00,,,0.00,Wunderground v.1.15,2013-06-18 03:55:00,
2013-06-17 23:56:00,71.8,70.3,29.94,SSW,202,3.0,4.0,95,0.00,,,0.31,Wunderground v.1.15,2013-06-18 03:56:00,